Terminal Aerodrome Forecast
Issued by NWS Portland, OR

Home | Current Version | Previous Version | Text Only | Print | Product List | Glossary On
Versions: 1 2 3 4 5 6 7 8 9 10 11 12 13 14 15 16 17 18 19 20 21 22 23 24 25 26 27 28 29 30 31 32
000
FTUS46 KPQR 012329
TAFSLE
TAF
KSLE 012329Z 0200/0224 18007KT P6SM -SHRA BKN015 OVC025
     FM020200 20007KT P6SM VCSH SCT025 BKN050
     FM020400 24006KT P6SM VCSH BKN028 OVC045
     FM021100 18009KT P6SM -RA SCT015 OVC020=

USA.gov is the U.S. government's official web portal to all federal, state and local government web resources and services.